Location: Songkhla
(7.2000°N, 100.6000°E)
Time: 20:22:36
(UTC+07:00)

Milstar 3 - Pass Details

Date: 16 April 2026
Orbit: 1097 x 5148 km, 28.2° (Epoch: 20 May)

Event Time Altitude Azimuth Distance (km) Brightness Sun altitude
Rises 19:02:39 0° 227° (SW) 3,920 6.2 -9.7°
Reaches altitude 10° 19:05:18 10° 221° (SW) 2,939 5.4 -10.4°
Maximum altitude 19:11:41 48° 146° (SSE) 1,538 3.3 -11.9°
Enters shadow 19:19:45 12° 75° (ENE) 3,744 5.0 -13.9°
